Time,TemperatureF,DewpointF,PressureIn,WindDirection,WindDirectionDegrees,WindSpeedMPH,WindSpeedGustMPH,Humidity,HourlyPrecipIn,Conditions,Clouds,dailyrainin,SoftwareType,DateUTC
2013-10-01 17:42:00,68.0,61.0,29.83,South,178,4.0,10.0,77,0.00,,,0.00,,2013-10-02 00:42:00,
2013-10-01 17:52:00,67.0,60.0,29.84,SW,228,4.0,9.0,79,0.00,,,0.00,,2013-10-02 00:52:00,
2013-10-01 18:12:00,66.0,60.0,29.84,SSW,207,4.0,8.0,80,0.00,,,0.00,,2013-10-02 01:12:00,
2013-10-01 18:21:00,65.0,59.0,29.84,SW,216,5.0,9.0,81,0.00,,,0.00,,2013-10-02 01:21:00,
2013-10-01 18:42:00,64.0,59.0,29.84,SSW,209,4.0,8.0,83,0.00,,,0.00,,2013-10-02 01:42:00,
2013-10-01 18:52:00,63.0,58.0,29.85,South,173,3.0,8.0,84,0.00,,,0.00,,2013-10-02 01:52:00,
2013-10-01 19:11:00,63.0,58.0,29.84,SE,146,5.0,10.0,85,0.00,,,0.00,,2013-10-02 02:11:00,
2013-10-01 19:22:00,62.0,58.0,29.84,SSE,159,4.0,12.0,86,0.00,,,0.00,,2013-10-02 02:22:00,
2013-10-01 19:42:00,62.0,58.0,29.85,South,180,2.0,8.0,86,0.00,,,0.00,,2013-10-02 02:42:00,
2013-10-01 19:52:00,62.0,58.0,29.85,South,191,3.0,8.0,87,0.00,,,0.00,,2013-10-02 02:52:00,
2013-10-01 20:12:00,61.0,57.0,29.86,SE,127,2.0,9.0,88,0.00,,,0.00,,2013-10-02 03:12:00,
2013-10-01 20:22:00,61.0,57.0,29.86,South,178,2.0,8.0,88,0.00,,,0.00,,2013-10-02 03:22:00,
2013-10-01 20:44:00,61.0,58.0,29.87,SSE,161,4.0,9.0,89,0.00,,,0.00,,2013-10-02 03:44:00,
2013-10-01 20:54:00,61.0,58.0,29.87,South,175,2.0,7.0,89,0.00,,,0.00,,2013-10-02 03:54:00,
2013-10-01 21:13:00,61.0,58.0,29.88,SE,140,1.0,7.0,89,0.00,,,0.00,,2013-10-02 04:13:00,
2013-10-01 21:24:00,61.0,57.0,29.88,SSE,152,3.0,7.0,88,0.00,,,0.00,,2013-10-02 04:24:00,
2013-10-01 21:44:00,61.0,57.0,29.88,SSE,159,3.0,9.0,88,0.00,,,0.00,,2013-10-02 04:44:00,
2013-10-01 21:54:00,60.0,56.0,29.88,ESE,116,3.0,7.0,88,0.00,,,0.00,,2013-10-02 04:54:00,
2013-10-01 22:13:00,60.0,56.0,29.88,ESE,115,3.0,7.0,88,0.00,,,0.00,,2013-10-02 05:13:00,
2013-10-01 22:22:00,60.0,57.0,29.88,SE,141,3.0,8.0,89,0.00,,,0.00,,2013-10-02 05:22:00,
2013-10-01 22:42:00,60.0,57.0,29.88,ESE,122,2.0,7.0,89,0.00,,,0.00,,2013-10-02 05:42:00,
2013-10-01 22:53:00,61.0,58.0,29.88,SSE,159,2.0,7.0,89,0.00,,,0.00,,2013-10-02 05:53:00,
2013-10-01 23:12:00,61.0,58.0,29.88,SSE,158,3.0,8.0,89,0.00,,,0.00,,2013-10-02 06:12:00,
2013-10-01 23:21:00,61.0,57.0,29.88,South,188,3.0,7.0,88,0.00,,,0.00,,2013-10-02 06:21:00,
2013-10-01 23:42:00,61.0,57.0,29.88,SSE,161,3.0,6.0,88,0.00,,,0.00,,2013-10-02 06:42:00,
2013-10-01 23:52:00,61.0,57.0,29.88,ESE,114,3.0,7.0,88,0.00,,,0.00,,2013-10-02 06:52:00,